Location: Julian California
(33.0790°N, 116.6010°W)
Time: 09:28:28
(UTC-07:00)

Gbstr 26 Del rocket - Pass Details

Date: 12 July 2018
Orbit: 494 x 1264 km, 51.8° (Epoch: 21 September)

Event Time Altitude Azimuth Distance (km) Brightness Sun altitude
Rises 21:08:36 0° 213° (SSW) 3,202 6.7 -13.5°
Reaches altitude 10° 21:11:16 10° 209° (SSW) 2,153 5.7 -13.9°
Maximum altitude 21:15:59 52° 133° (SE) 751 3.1 -14.7°
Drops below altitude 10° 21:19:57 10° 57° (ENE) 1,816 5.3 -15.3°
Sets 21:22:03 0° 52° (NE) 2,651 6.2 -15.7°
